Regional Weather Roundup
Issued by NWS Green Bay, WI

Home | Current Version | Previous Version | Text Only | Print | Product List | Glossary On
Versions: 1 2 3 4 5 6 7 8 9 10 11 12 13 14 15 16 17 18 19 20 21 22 23 24 25 26 27 28 29 30 31 32 33 34 35 36 37 38 39 40 41 42 43 44 45 46 47 48 49 50
374
ASUS43 KGRB 010000
RWRGRB

NORTH-CENTRAL AND NORTHEAST WISCONSIN REGIONAL WEATHER ROUNDUP
NATIONAL WEATHER SERVICE GREEN BAY WI
700 PM CDT FRI SEP 30 2016

WIZ005-009-010>012-018-019-010100-
NORTH CENTRAL WISCONSIN

CITY           SKY/WX    TMP DP  RH WIND       PRES   REMARKS
IRONWOOD       CLOUDY    55  55 100 N7        30.31S FOG
MANITOWISH WTR NOT AVBL
ARBOR VITAE    NOT AVBL
EAGLE RIVER    NOT AVBL
LAND O LAKES   NOT AVBL
RHINELANDER    CLOUDY    63  50  62 NE5       30.27S
PHILLIPS       NOT AVBL
ANTIGO         NOT AVBL
TOMAHAWK       NOT AVBL
MERRILL        NOT AVBL
$$

WIZ013-073-010100-
NORTHEAST WISCONSIN

CITY           SKY/WX    TMP DP  RH WIND       PRES   REMARKS
IRON MOUNTAIN  PTCLDY    60  48  64 NE8       30.27S
MARINETTE      CLOUDY    63  55  75 NE16G22   30.23F
$$

WIZ017-030-035>037-045-010100-
CENTRAL WISCONSIN

CITY           SKY/WX    TMP DP  RH WIND       PRES   REMARKS
MEDFORD        NOT AVBL
WAUSAU         CLOUDY    63  51  65 NE5       30.21F
MOSINEE        NOT AVBL
MARSHFIELD     CLOUDY    64  54  69 E5        30.21S
WISC RAPIDS    CLOUDY    62  54  74 NE6       30.22F
STEVENS POINT  NOT AVBL
WAUPACA        NOT AVBL
SHAWANO        NOT AVBL
CLINTONVILLE   NOT AVBL
WAUTOMA        LGT RAIN  59  57  93 NE7       30.19F
$$

WIZ038-039-048-051-010100-
FOX VALLEY

CITY           SKY/WX    TMP DP  RH WIND       PRES   REMARKS
NWS GREEN BAY  CLOUDY    63  58  83 NE16G22   30.19F
APPLETON       CLOUDY    61  57  88 NE10      30.17F
OSHKOSH        CLOUDY    61  57  87 NE13      30.17S
FOND DU LAC    LGT RAIN  61  58  90 NE12      30.17F
$$

WIZ022-050-052-010100-
EAST CENTRAL WISCONSIN

CITY           SKY/WX    TMP DP  RH WIND       PRES   REMARKS
EPHRAIM        NOT AVBL
WASHINGTON ISL NOT AVBL
STURGEON BAY   CLOUDY    62  56  80 NE9       30.21F
MANITOWOC      NOT AVBL
SHEBOYGAN      LGT RAIN  61  59  93 NE16      30.16S
$$

LMZ563-521-522-541>543-010100-
LAKESHORE

STATION/POSITION TIME  TEMP    WIND        PRES    VSBY  WAVE
                       AIR SEA DIR/SP/G                  HT/PER
                 (UTC) (F)     (DEG/KT/KT) (MB)    (MI)  (FT/S)
SHEBOYGAN LKSHOR 2300   61      30/ 14/ 15 1021.2F
KEWAUNEE LKSHORE 2300   62      30/ 11/ 17 1021.9F
NORTHPORT PIER   2300   64      50/ 14/ 20 1023.7F
N MID LAKE BUOY  2250   64 65   70/ 21/ 25 1022.9R         4/ 5
S GREEN BAY BUOY 2300   63 62   50/ 16/ 19 1022.4F
SISTER BAY LKSHO 2308   64      50/  6/ 12   N/A
CHAMBERS ISLAND  2300   63      40/ 12/ 18 1023.4S
MENOMINEE LKSHOR 2300   63      40/ 19/ 20 1022.7F
$$




USA.gov is the U.S. government's official web portal to all federal, state and local government web resources and services.